Regional Weather Roundup
Issued by NWS Charleston, SC

Current Version | Previous Version | Graphics & Text | Print | Product List | Glossary On
Versions: 1 2 3 4 5 6 7 8 9 10 11 12 13 14 15 16 17 18 19 20 21 22 23 24 25 26 27 28 29 30 31 32 33 34 35 36 37 38 39 40 41 42 43 44 45 46 47 48 49 50
318
ASUS42 KCHS 121513
RWRCHS

REGIONAL WEATHER ROUNDUP
NATIONAL WEATHER SERVICE CHARLESTON SC
1000 AM EST FRI FEB 12 2016

NOTE: "FAIR" INDICATES FEW OR NO CLOUDS BELOW 12,000 FEET WITH NO
SIGNIFICANT WEATHER AND/OR OBSTRUCTIONS TO VISIBILITY.

NOT ALL STATIONS ARE QUALITY CONTROLLED BY THE NATIONAL
WEATHER SERVICE. USE DATA WITH CAUTION...ESPECIALLY
DEWPOINT OBSERVATIONS.

SCZ027-030-031-034>040-042>050-121600-
...SOUTHEAST SOUTH CAROLINA...

CITY           SKY/WX    TMP DP  RH WIND       PRES   REMARKS
N CHARLESTON   CLOUDY    51  41  68 E3        30.13F
WATERFRONT PRK   N/A     49  45  85 CALM      29.99F
MOUNT PLEASANT CLOUDY    52  45  76 CALM      30.14F
JOHNS ISLAND   CLOUDY    52  48  87 CALM      30.14S
PINOPOLIS        N/A     46  39  76 VRB2      30.08R
MONCKS CORNER  CLOUDY    43  36  75 NE3       30.14F
SUMMERVILLE    CLOUDY    46  39  76 CALM      30.15S
BEAUFORT MCAS  DRIZZLE   50  48  93 SE3       30.12F
BEAUFORT ARPT  CLOUDY    52  52 100 CALM      30.13F FOG
HILTON HEAD IS PTSUNNY   57  54  88 SW9       30.14F
WALTERBORO     CLOUDY    48  39  71 CALM      30.14F
ALLENDALE      CLOUDY    45  39  81 CALM      30.12F

...SOUTHERN MIDLANDS AND PEE DEE...

CITY           SKY/WX    TMP DP  RH WIND       PRES   REMARKS
GEORGETOWN     CLOUDY    45  36  70 NE8       30.16F
KINGSTREE      PTSUNNY   39  28  65 N6        30.17S WCI  35
ORANGEBURG     MOSUNNY   45  35  68 E7        30.13F
BARNWELL       FAIR      46  39  76 CALM      30.14F
AIKEN          CLOUDY    37  32  81 N7        30.17S WCI  32
MANNING        CLOUDY    43  32  65 NE3       30.16S
COLUMBIA       CLOUDY    39  25  57 NE7       30.17S WCI  34
SUMTER         NOT AVBL
FLORENCE       PTSUNNY   35  17  47 E8        30.18F WCI  29
MYRTLE BEACH   CLOUDY    43  27  52 NE12      30.17F
N MYRTLE BEACH CLOUDY    41  28  60 NE10      30.14F

$$

GAZ063-065-086>088-099>101-113>116-118-119-134>141-150-121600-
...SOUTHEAST GEORGIA...

CITY           SKY/WX    TMP DP  RH WIND       PRES   REMARKS
SAVANNAH ARPT  CLOUDY    59  53  80 SW12      30.13F
HUNTER AAF     NOT AVBL
FORT STEWART   NOT AVBL
STATESBORO     CLOUDY    48  47  99 CALM      30.12F FOG
SYLVANIA       CLOUDY    44  44  99 CALM      30.13F FOG
CLAXTON        PTSUNNY   55  52  90 CALM      30.12F

...CSRA...CENTRAL AND FAR SOUTHEAST GEORGIA...

CITY           SKY/WX    TMP DP  RH WIND       PRES   REMARKS
THOMSON        CLOUDY    41  36  81 CALM      30.18F
AUGUSTA-BUSH   PTSUNNY   46  35  65 N6        30.14F
AUGUSTA-DANIEL CLOUDY    45  32  60 N7        30.15S
SWAINSBORO     DRIZZLE   43  41  93 CALM      30.13S
VIDALIA        CLOUDY    59  54  82 SW6       30.12S
EASTMAN        CLOUDY    53  48  81 CALM      30.15S
HAZLEHURST     CLOUDY    62  57  84 SW9       30.12S
ALMA           CLOUDY    60  55  83 SW10      30.14S
WAYCROSS       CLOUDY    64  59  85 W13G21    30.15F
JESUP          CLOUDY    63  59  88 W8        30.15S
BAXLEY         CLOUDY    61  59  94 SW8       30.13F
BRUNSWICK      CLOUDY    63  55  77 SW14G21   30.16F
SAINT SIMONS   MOSUNNY   61  55  81 SW12      30.16F

$$

SCZ027-028-034-036>038-045-046-048>050-GAZ119-141-121600-
...LAKE AND SUPPLEMENTAL COASTAL OBSERVATIONS...

STATION/POSITION TIME  TEMP    WIND        PRES    WAVE   SWELL
                       AIR SEA DIR/SP/G            HT/PER HT/PER/DIR
                 (UTC) (F)     (DEG/KT/KT) (MB)    (FT/S) (FT/S/D)
WINYAH BAY       1345   45      50/ 12     1020.0
LAKE MURRAY      1400   35      30/  2/  5 1021.3S
ACE BASIN NERRS  NOT AVBL
FORT PULASKI     1400   53 50  190/  5/  6 1020.8F
SAPELO ISLAND    1400   56     210/ 10     1021.0S

$$

ANZ835-935-AMZ111-154-330-350-352-354-370-450-454-472-121600-
...C-MAN AND BUOY OBSERVATIONS...

STATION/POSITION TIME  TEMP    WIND        PRES    WAVE   SWELL
                       AIR SEA DIR/SP/G            HT/PER HT/PER/DIR
                 (UTC) (F)     (DEG/KT/KT) (MB)    (FT/S) (FT/S/D)
BUOY 41004       1450   60 69  250/ 14/ 17 1019.7F   4/ 6   2/ 7
BUOY 41008       1450   54 52  210/ 16/ 17 1021.0F   4/ 5
FOLLY BEACH CMAN 1500   50      CALM  /  1 1020.6F
CAPERS NEARSHORE 1408   51      50/  4/  8 1020.5S
FRIPP NEARSHORE  1400   52     220/ 10/ 14 1019.9F


STATION/POSITION TIME  TEMP    WIND        PRES    WAVE   SWELL
                       AIR SEA DIR/SP/G            HT/PER HT/PER/DIR
                 (UTC) (F)     (DEG/KT/KT) (MB)    (FT/S) (FT/S/D)
5E ST. MARYS GA  1421      56                N/A     2/ 5
FRYING PAN BUOY  1400   55 56   40/ 12/ 14 1020.4F
BUOY 41025       1450   44 70   30/ 14/ 17 1024.5F   3/ 8   2/ 60/ 8
CAPE LOOKOUT NC  NOT AVBL
BUOY 41002       1450   61 68  220/ 17/ 23   N/A     4/ 6   3/ 20/ 8
BUOY 41010       1420   67 72              1025.7S
ST AUGUSTINE FL  1500   64 56  240/  8/ 12 1024.7F


$$




USA.gov is the U.S. government's official web portal to all federal, state and local government web resources and services.